| time (UTC) | temp C | wind direction | speed KPH | gust KPH | rain 1hr cm | rain 24hr cm | rain mn cm | humidity % | barometer mb |
| 20260507141538 | 19 | 161 | 11.3 | 19.3 | 0.00 | 0.00 | 0.00 | 56 | 1011.0 |
| 20260507140045 | 19 | 133 | 11.3 | 22.5 | 0.00 | 0.00 | 0.00 | 55 | 1011.0 |
| 20260507134536 | 19 | 140 | 12.9 | 27.4 | 0.00 | 0.00 | 0.00 | 54 | 1011.0 |
| 20260507133034 | 20 | 149 | 12.9 | 24.1 | 0.00 | 0.00 | 0.00 | 52 | 1011.2 |
| 20260507131603 | 20 | 143 | 16.1 | 29.0 | 0.00 | 0.00 | 0.00 | 49 | 1011.1 |
| 20260507130034 | 21 | 132 | 12.9 | 27.4 | 0.00 | 0.00 | 0.00 | 46 | 1011.4 |
| 20260507124549 | 21 | 129 | 9.7 | 19.3 | 0.00 | 0.00 | 0.00 | 46 | 1011.3 |
| 20260507123043 | 21 | 101 | 9.7 | 22.5 | 0.00 | 0.00 | 0.00 | 46 | 1011.5 |
| 20260507121541 | 21 | 48 | 9.7 | 27.4 | 0.00 | 0.00 | 0.00 | 46 | 1011.7 |
| 20260507120039 | 21 | 125 | 11.3 | 24.1 | 0.00 | 0.00 | 0.00 | 46 | 1011.8 |
| 20260507114533 | 20 | 119 | 9.7 | 19.3 | 0.00 | 0.00 | 0.00 | 48 | 1011.7 |
| 20260507113102 | 20 | 57 | 9.7 | 22.5 | 0.00 | 0.00 | 0.00 | 48 | 1011.8 |
| 20260507111536 | 20 | 68 | 11.3 | 20.9 | 0.00 | 0.00 | 0.00 | 49 | 1012.0 |
| 20260507110038 | 20 | 65 | 9.7 | 22.5 | 0.00 | 0.00 | 0.00 | 49 | 1012.0 |
| 20260507104539 | 21 | 90 | 11.3 | 20.9 | 0.00 | 0.00 | 0.00 | 49 | 1012.1 |
| 20260507103038 | 21 | 74 | 8.0 | 24.1 | 0.00 | 0.00 | 0.00 | 49 | 1012.3 |
| 20260507101538 | 21 | 41 | 11.3 | 24.1 | 0.00 | 0.00 | 0.00 | 49 | 1012.2 |
| 20260507100046 | 20 | 98 | 9.7 | 24.1 | 0.00 | 0.00 | 0.00 | 49 | 1012.3 |
| 20260507094538 | 21 | 98 | 11.3 | 27.4 | 0.00 | 0.00 | 0.00 | 48 | 1012.3 |
| 20260507093039 | 21 | 108 | 9.7 | 24.1 | 0.00 | 0.00 | 0.00 | 48 | 1012.6 |
| 20260507091541 | 20 | 93 | 11.3 | 20.9 | 0.00 | 0.00 | 0.00 | 49 | 1012.4 |
| 20260507090039 | 20 | 105 | 11.3 | 24.1 | 0.00 | 0.00 | 0.00 | 50 | 1012.5 |
| 20260507084549 | 20 | 65 | 11.3 | 22.5 | 0.00 | 0.00 | 0.00 | 51 | 1012.3 |
| 20260507083036 | 20 | 76 | 8.0 | 17.7 | 0.00 | 0.00 | 0.00 | 50 | 1012.6 |
| 20260507081537 | 19 | 108 | 4.8 | 19.3 | 0.00 | 0.00 | 0.00 | 51 | 1012.5 |
| 20260507080038 | 19 | 67 | 4.8 | 19.3 | 0.00 | 0.00 | 0.00 | 51 | 1012.5 |
| 20260507074537 | 19 | 88 | 8.0 | 16.1 | 0.00 | 0.00 | 0.00 | 52 | 1012.5 |
| 20260507073036 | 18 | 77 | 11.3 | 19.3 | 0.00 | 0.00 | 0.00 | 52 | 1012.4 |
| 20260507071541 | 18 | 98 | 0.0 | 6.4 | 0.00 | 0.00 | 0.00 | 54 | 1012.1 |
| 20260507070034 | 17 | 0 | 0.0 | 8.0 | 0.00 | 0.00 | 0.00 | 56 | 1012.1 |
| 20260507064543 | 17 | 0 | 0.0 | 6.4 | 0.00 | 0.00 | 0.00 | 58 | 1012.0 |
| 20260507063031 | 16 | 167 | 3.2 | 6.4 | 0.00 | 0.00 | 0.00 | 59 | 1012.0 |
| 20260507061537 | 16 | 0 | 0.0 | 4.8 | 0.00 | 0.00 | 0.00 | 60 | 1012.0 |
| 20260507060039 | 16 | 0 | 0.0 | 3.2 | 0.00 | 0.00 | 0.00 | 60 | 1011.9 |
| 20260507054539 | 15 | 252 | 1.6 | 4.8 | 0.00 | 0.00 | 0.00 | 61 | 1011.9 |
| 20260507053032 | 15 | 0 | 0.0 | 4.8 | 0.00 | 0.00 | 0.00 | 61 | 1011.9 |
| 20260507051532 | 15 | 259 | 1.6 | 6.4 | 0.00 | 0.00 | 0.00 | 61 | 1011.8 |
| 20260507050100 | 15 | 276 | 0.0 | 4.8 | 0.00 | 0.00 | 0.00 | 61 | 1011.7 |
| 20260507044546 | 15 | 274 | 3.2 | 9.7 | 0.00 | 0.00 | 0.00 | 61 | 1011.8 |
| 20260507043037 | 15 | 305 | 4.8 | 9.7 | 0.00 | 0.00 | 0.00 | 61 | 1011.6 |
| 20260507041539 | 15 | 0 | 4.8 | 11.3 | 0.00 | 0.00 | 0.00 | 60 | 1011.6 |
| 20260507040036 | 15 | 0 | 0.0 | 0.0 | 0.00 | 0.00 | 0.00 | 59 | 1011.6 |
| 20260507034540 | 16 | 0 | 0.0 | 0.0 | 0.00 | 0.00 | 0.00 | 58 | 1011.6 |
| 20260507033041 | 16 | 0 | 0.0 | 1.6 | 0.00 | 0.00 | 0.00 | 57 | 1011.5 |
| 20260507031537 | 16 | 110 | 0.0 | 4.8 | 0.00 | 0.00 | 0.00 | 57 | 1011.4 |
| 20260507030038 | 16 | 0 | 1.6 | 4.8 | 0.00 | 0.00 | 0.00 | 57 | 1011.5 |
| 20260507024543 | 16 | 109 | 1.6 | 6.4 | 0.00 | 0.00 | 0.00 | 58 | 1011.5 |
| 20260507023038 | 16 | 91 | 1.6 | 9.7 | 0.00 | 0.00 | 0.00 | 58 | 1011.6 |
| 20260507021547 | 16 | 0 | 0.0 | 0.0 | 0.00 | 0.00 | 0.00 | 59 | 1011.6 |
| 20260507020034 | 16 | 0 | 0.0 | 0.0 | 0.00 | 0.00 | 0.00 | 59 | 1011.8 |
| 20260507014537 | 16 | 0 | 0.0 | 0.0 | 0.00 | 0.00 | 0.00 | 59 | 1011.9 |
| 20260507013038 | 16 | 0 | 0.0 | 0.0 | 0.00 | 0.00 | 0.00 | 59 | 1012.1 |
| 20260507011539 | 16 | 0 | 0.0 | 0.0 | 0.00 | 0.00 | 0.00 | 59 | 1012.0 |
| 20260507010042 | 16 | 0 | 0.0 | 0.0 | 0.00 | 0.00 | 0.00 | 59 | 1012.0 |
| 20260507004536 | 17 | 0 | 0.0 | 0.0 | 0.00 | 0.00 | 0.00 | 60 | 1011.9 |
| 20260507003032 | 17 | 0 | 0.0 | 0.0 | 0.00 | 0.00 | 0.00 | 60 | 1012.2 |
| 20260507001538 | 17 | 0 | 0.0 | 0.0 | 0.00 | 0.00 | 0.00 | 60 | 1012.3 |
| 20260507000038 | 17 | 0 | 0.0 | 0.0 | 0.00 | 0.00 | 0.00 | 60 | 1012.4 |
| 20260506234536 | 17 | 0 | 0.0 | 0.0 | 0.00 | 0.00 | 0.00 | 60 | 1012.4 |
| 20260506233036 | 17 | 0 | 0.0 | 0.0 | 0.00 | 0.00 | 0.00 | 60 | 1012.5 |
| 20260506231537 | 17 | 0 | 0.0 | 0.0 | 0.00 | 0.00 | 0.00 | 60 | 1012.6 |
| 20260506230039 | 17 | 0 | 0.0 | 0.0 | 0.00 | 0.00 | 0.00 | 61 | 1012.7 |
| 20260506224539 | 17 | 0 | 0.0 | 0.0 | 0.00 | 0.00 | 0.00 | 61 | 1012.7 |
| 20260506223033 | 17 | 0 | 0.0 | 0.0 | 0.00 | 0.00 | 0.00 | 61 | 1012.6 |
| 20260506221536 | 17 | 0 | 0.0 | 0.0 | 0.00 | 0.00 | 0.00 | 60 | 1012.7 |
| 20260506220040 | 17 | 0 | 0.0 | 0.0 | 0.00 | 0.00 | 0.00 | 60 | 1012.7 |
| 20260506214542 | 17 | 0 | 0.0 | 0.0 | 0.00 | 0.00 | 0.00 | 60 | 1012.9 |
| 20260506213037 | 17 | 0 | 0.0 | 6.4 | 0.00 | 0.00 | 0.00 | 60 | 1012.9 |
| 20260506211537 | 17 | 98 | 0.0 | 4.8 | 0.00 | 0.00 | 0.00 | 60 | 1013.0 |
| 20260506210039 | 17 | 0 | 0.0 | 4.8 | 0.00 | 0.00 | 0.00 | 60 | 1013.0 |
| 20260506204550 | 17 | 0 | 0.0 | 6.4 | 0.00 | 0.00 | 0.00 | 61 | 1012.9 |
| 20260506203039 | 17 | 106 | 0.0 | 6.4 | 0.00 | 0.00 | 0.00 | 61 | 1012.9 |
| 20260506201540 | 17 | 88 | 3.2 | 9.7 | 0.00 | 0.00 | 0.00 | 61 | 1012.5 |
| 20260506200037 | 17 | 94 | 1.6 | 9.7 | 0.00 | 0.00 | 0.00 | 60 | 1012.3 |
| 20260506194542 | 18 | 82 | 3.2 | 9.7 | 0.00 | 0.00 | 0.00 | 60 | 1012.1 |
| 20260506193035 | 18 | 88 | 3.2 | 11.3 | 0.00 | 0.00 | 0.00 | 59 | 1011.8 |
| 20260506191535 | 18 | 92 | 4.8 | 12.9 | 0.00 | 0.00 | 0.00 | 59 | 1011.7 |
| 20260506190054 | 18 | 46 | 4.8 | 19.3 | 0.00 | 0.00 | 0.00 | 58 | 1011.7 |
| 20260506184537 | 18 | 65 | 6.4 | 17.7 | 0.00 | 0.00 | 0.00 | 58 | 1011.5 |
| 20260506183040 | 18 | 148 | 11.3 | 20.9 | 0.00 | 0.00 | 0.00 | 56 | 1011.4 |
| 20260506181542 | 19 | 112 | 9.7 | 20.9 | 0.00 | 0.00 | 0.00 | 56 | 1011.5 |
| 20260506180039 | 19 | 111 | 11.3 | 20.9 | 0.00 | 0.00 | 0.00 | 54 | 1011.4 |
| 20260506174537 | 19 | 105 | 12.9 | 27.4 | 0.00 | 0.00 | 0.00 | 54 | 1011.3 |
| 20260506173037 | 20 | 119 | 11.3 | 25.7 | 0.00 | 0.00 | 0.00 | 53 | 1011.3 |
| 20260506171541 | 20 | 91 | 11.3 | 22.5 | 0.00 | 0.00 | 0.00 | 52 | 1011.3 |
| 20260506170038 | 20 | 67 | 8.0 | 22.5 | 0.00 | 0.00 | 0.00 | 53 | 1011.3 |
| 20260506164546 | 20 | 100 | 11.3 | 27.4 | 0.00 | 0.00 | 0.00 | 51 | 1011.2 |
| 20260506163040 | 20 | 85 | 14.5 | 30.6 | 0.00 | 0.00 | 0.00 | 49 | 1010.9 |
| 20260506161544 | 21 | 77 | 16.1 | 24.1 | 0.00 | 0.00 | 0.00 | 48 | 1010.9 |
| 20260506160043 | 21 | 161 | 12.9 | 25.7 | 0.00 | 0.00 | 0.00 | 47 | 1010.9 |
| 20260506154537 | 21 | 97 | 12.9 | 25.7 | 0.00 | 0.00 | 0.00 | 47 | 1010.8 |
| 20260506153038 | 21 | 79 | 16.1 | 25.7 | 0.00 | 0.00 | 0.00 | 48 | 1011.0 |
| 20260506151553 | 21 | 131 | 14.5 | 30.6 | 0.00 | 0.00 | 0.00 | 47 | 1011.1 |
| 20260506150036 | 21 | 92 | 14.5 | 27.4 | 0.00 | 0.00 | 0.00 | 48 | 1011.1 |
| 20260506144532 | 21 | 132 | 16.1 | 29.0 | 0.00 | 0.00 | 0.00 | 49 | 1011.0 |
| 20260506143046 | 21 | 158 | 12.9 | 32.2 | 0.00 | 0.00 | 0.00 | 49 | 1011.2 |